Powrót do katalogu

THORAD AGENA D DEB

AktywnySSO
NORAD 19290·DEBRIS·🇺🇸 United States

Wystrzelony Apr 8, 1970 z Vandenberg Space Force Base

Loading…

Następne Przeloty (najbliższe 24 godziny)

TLE

ŚwieżeSource: Space-Track

Epoka: Sep 14, 2026, 03:36 UTC

1 19290U 70025PV  26257.15064705  .00000225  00000-0  36774-3 0  9994
2 19290  99.9021 208.7865 0027902   9.1544   5.4590 13.59207685 50590

Śledź THORAD AGENA D DEB w czasie rzeczywistym z AllMySat

Download on the App Store